Cross City, FL

10:37 AM EDT on October 22, 2019 (GMT -0400)
Cross City

Weather History for KCTY - September, 2019

Change the Weather History Date:

Tuesday, September 17, 2019

  Actual Average Record
Temperature  
Mean Temperature 84 °F 78 °F  
Max Temperature 96 °F 89 °F 95 °F (2005)
Min Temperature 71 °F 68 °F 53 °F (1999)
Degree Days  
Heating Degree Days 0    
Month to date heating degree days 0  
Since 1 July heating degree days 0  
Cooling Degree Days 19    
Month to date cooling degree days 308  
Year to date cooling degree days 2566  
Growing Degree Days 32 (Base 50)    
Moisture  
Dew Point 71 °F    
Average Humidity 72    
Maximum Humidity 99    
Minimum Humidity 28    
Precipitation  
Precipitation 0.00 in 0.14 in 3.14 in (2000)
Month to date precipitation 0.35 2.95  
Year to date precipitation 46.75 38.32  
Sea Level Pressure  
Sea Level Pressure 29.95 in    
Wind  
Wind Speed 3 mph (NNW)    
Max Wind Speed 8 mph    
Max Gust Speed -    
Visibility 9 miles    
Events Fog    
T = Trace of Precipitation, MM = Missing Value Source: NWS Daily Summary

Daily Weather History Graph

Daily Weather History Graph

Search for Another Location

Airport or City:

Astronomy

Sep. 17, 2019 Rise Set
Actual Time 7:18 AM EDT 7:35 PM EDT
Civil Twilight 6:54 AM EDT 7:59 PM EDT
Nautical Twilight 6:26 AM EDT 8:27 PM EDT
Astronomical Twilight 5:58 AM EDT 8:55 PM EDT
Moon 9:51 PM EDT (9/17) 10:09 AM EDT (9/17)
Length of Visible Light 13h 05m
Length of Day
12h 17m
Waning Gibbous, 89% of the Moon is Illuminated
Sep 17
Waning Gibbous
Sep 21
Last Quarter
Sep 28
New
Oct 5
First Quarter
Oct 13
Full

Hourly Weather History & Observations

Time (EDT) Temp. Heat Index Dew Point Humidity Pressure Visibility Wind Dir Wind Speed Gust Speed Precip Events Conditions
12:15 AM 77.4 °F - 75.0 °F 92% 29.96 in 10.0 mi WNW 4.6 mph - N/A   Clear
12:35 AM 77.0 °F - 74.8 °F 93% 29.96 in 10.0 mi WNW 3.5 mph - N/A   Clear
12:55 AM 76.5 °F - 74.7 °F 94% 29.95 in 10.0 mi NW 4.6 mph - N/A   Clear
1:15 AM 77.0 °F - 75.2 °F 94% 29.95 in 10.0 mi WNW 4.6 mph - N/A   Clear
1:35 AM 76.3 °F - 74.8 °F 95% 29.95 in 10.0 mi WNW 3.5 mph - N/A   Clear
1:55 AM 76.1 °F - 74.8 °F 96% 29.95 in 10.0 mi Calm Calm - N/A   Clear
2:15 AM 75.6 °F - 74.5 °F 96% 29.94 in 10.0 mi NW 4.6 mph - N/A   Clear
2:35 AM 75.6 °F - 74.7 °F 97% 29.94 in 10.0 mi NW 3.5 mph - N/A   Clear
2:55 AM 75.4 °F - 74.7 °F 98% 29.94 in 10.0 mi WNW 3.5 mph - N/A   Clear
3:15 AM 75.0 °F - 74.3 °F 98% 29.93 in 5.0 mi WNW 3.5 mph - N/A   Clear
3:35 AM 74.8 °F - 74.3 °F 98% 29.93 in 5.0 mi NW 3.5 mph - N/A   Clear
3:55 AM 75.2 °F - 73.4 °F 94% 29.92 in 5.0 mi WNW 3.5 mph - N/A   Clear
4:15 AM 74.8 °F - 74.5 °F 99% 29.92 in 7.0 mi NW 3.5 mph - N/A   Clear
4:35 AM 75.0 °F - 74.5 °F 98% 29.92 in 7.0 mi WNW 4.6 mph - N/A   Clear
4:55 AM 74.8 °F - 74.3 °F 98% 29.93 in 7.0 mi NW 5.8 mph - N/A   Clear
5:15 AM 74.8 °F - 73.8 °F 96% 29.92 in 10.0 mi NW 5.8 mph - N/A   Clear
5:35 AM 74.5 °F - 73.2 °F 96% 29.93 in 10.0 mi NW 4.6 mph - N/A   Clear
5:55 AM 74.1 °F - 72.7 °F 95% 29.93 in 10.0 mi Calm Calm - N/A   Clear
6:15 AM 73.4 °F - 72.5 °F 97% 29.94 in 10.0 mi Calm Calm - N/A   Clear
6:35 AM 73.0 °F - 72.3 °F 98% 29.95 in 7.0 mi Calm Calm - N/A   Clear
6:55 AM 72.0 °F - 71.2 °F 98% 29.95 in 5.0 mi Calm Calm - N/A   Clear
7:15 AM 70.5 °F - 70.0 °F 98% 29.96 in 0.5 mi Calm Calm - N/A Fog Fog
7:35 AM 70.9 °F - 70.3 °F 98% 29.97 in 5.0 mi Calm Calm - N/A   Scattered Clouds
7:55 AM 72.3 °F - 71.8 °F 98% 29.97 in 10.0 mi Calm Calm - N/A   Clear
8:15 AM 74.3 °F - 73.6 °F 98% 29.98 in 10.0 mi Calm Calm - N/A   Clear
8:35 AM 75.6 °F - 73.2 °F 92% 29.98 in 10.0 mi North 5.8 mph - N/A   Clear
8:55 AM 77.2 °F - 72.9 °F 86% 29.99 in 10.0 mi North 5.8 mph - N/A   Clear
9:15 AM 79.5 °F - 72.7 °F 79% 29.99 in 10.0 mi NNE 4.6 mph - N/A   Clear
9:35 AM 81.5 °F 86.1 °F 72.1 °F 73% 29.99 in 10.0 mi North 5.8 mph - N/A   Clear
9:55 AM 82.8 °F 87.4 °F 71.1 °F 68% 30.00 in 10.0 mi NNW 4.6 mph - N/A   Clear
10:15 AM 85.1 °F 89.8 °F 70.2 °F 61% 30.00 in 10.0 mi North 4.6 mph - N/A   Clear
10:35 AM 84.9 °F 89.1 °F 69.8 °F 60% 30.00 in 10.0 mi NW 4.6 mph - N/A   Clear
10:55 AM 87.1 °F 91.6 °F 69.8 °F 56% 30.00 in 10.0 mi NW 5.8 mph - N/A   Clear
11:35 AM 89.6 °F 93.4 °F 68.0 °F 49% 30.00 in 10.0 mi NNE 8.1 mph - N/A   Clear
11:55 AM 90.3 °F 95.2 °F 69.3 °F 50% 29.99 in 10.0 mi NW 6.9 mph - N/A   Clear
12:15 PM 92.1 °F 96.2 °F 68.2 °F 45% 29.99 in 10.0 mi North 5.8 mph - N/A   Clear
12:35 PM 92.1 °F 95.7 °F 67.3 °F 44% 29.99 in 10.0 mi NNW 5.8 mph - N/A   Clear
12:55 PM 92.7 °F 96.2 °F 66.9 °F 43% 29.98 in 10.0 mi NW 8.1 mph - N/A   Clear
1:15 PM 93.4 °F 95.6 °F 64.9 °F 39% 29.98 in 10.0 mi NNW 6.9 mph - N/A   Clear
1:35 PM 93.4 °F 95.6 °F 65.3 °F 39% 29.97 in 10.0 mi NNE 8.1 mph - N/A   Clear
1:55 PM 94.8 °F 98.1 °F 66.6 °F 39% 29.97 in 10.0 mi NE 5.8 mph - N/A   Unknown
2:15 PM 94.3 °F 96.7 °F 64.8 °F 38% 29.96 in 10.0 mi North 10.4 mph - N/A   Unknown
2:35 PM 94.6 °F 97.3 °F 65.1 °F 38% 29.96 in 10.0 mi North 8.1 mph - N/A   Unknown
2:55 PM 95.0 °F 97.9 °F 65.5 °F 38% 29.95 in 10.0 mi North 5.8 mph - N/A   Unknown
3:15 PM 95.4 °F 97.1 °F 63.7 °F 35% 29.94 in 10.0 mi North 6.9 mph - N/A   Unknown
3:35 PM 95.5 °F 97.9 °F 64.6 °F 36% 29.93 in 10.0 mi NE 4.6 mph - N/A   Unknown
3:55 PM 95.5 °F 97.9 °F 64.6 °F 36% 29.93 in 10.0 mi North 8.1 mph - N/A   Unknown
4:15 PM 95.5 °F 97.9 °F 64.4 °F 36% 29.92 in 10.0 mi North 6.9 mph - N/A   Unknown
4:35 PM 95.2 °F 97.8 °F 64.9 °F 37% 29.92 in 10.0 mi NNE 4.6 mph - N/A   Unknown
4:55 PM 95.4 °F 98.1 °F 65.1 °F 37% 29.91 in 10.0 mi NNE 4.6 mph - N/A   Unknown
5:15 PM 95.2 °F 97.3 °F 64.2 °F 36% 29.92 in 10.0 mi North 8.1 mph - N/A   Unknown
5:35 PM 94.8 °F 96.7 °F 63.9 °F 36% 29.92 in 10.0 mi NNE 4.6 mph - N/A   Unknown
5:55 PM 94.3 °F 96.7 °F 65.1 °F 38% 29.92 in 10.0 mi North 4.6 mph - N/A   Unknown
6:15 PM 93.7 °F 96.7 °F 65.8 °F 40% 29.92 in 10.0 mi North 4.6 mph - N/A   Unknown
6:35 PM 92.7 °F 96.7 °F 67.6 °F 44% 29.92 in 7.0 mi NE 3.5 mph - N/A   Unknown
6:55 PM 91.0 °F 96.6 °F 70.0 °F 50% 29.92 in 10.0 mi Calm Calm - N/A   Unknown
7:15 PM 86.7 °F 92.5 °F 71.4 °F 60% 29.92 in 10.0 mi West 5.8 mph - N/A   Unknown
7:35 PM 86.0 °F 91.5 °F 71.1 °F 61% 29.92 in 10.0 mi West 6.9 mph - N/A   Unknown
7:55 PM 84.0 °F 89.6 °F 72.0 °F 67% 29.92 in 10.0 mi West 3.5 mph - N/A   Unknown
8:15 PM 82.4 °F 88.2 °F 73.4 °F 74% 29.93 in 10.0 mi Calm Calm - N/A   Unknown
8:35 PM 81.1 °F 86.6 °F 73.9 °F 79% 29.93 in 10.0 mi SW 3.5 mph - N/A   Unknown
8:55 PM 80.2 °F 84.9 °F 73.8 °F 81% 29.94 in 10.0 mi Calm Calm - N/A   Unknown
9:15 PM 79.5 °F - 73.8 °F 82% 29.95 in 10.0 mi Calm Calm - N/A   Unknown
9:35 PM 78.6 °F - 73.4 °F 84% 29.95 in 10.0 mi Calm Calm - N/A   Unknown
9:55 PM 78.3 °F - 73.4 °F 85% 29.95 in 10.0 mi Calm Calm - N/A   Clear
10:15 PM 77.2 °F - 73.4 °F 88% 29.96 in 10.0 mi Calm Calm - N/A   Clear
10:35 PM 77.0 °F - 73.9 °F 90% 29.96 in 10.0 mi ESE 3.5 mph - N/A   Clear
10:55 PM 77.2 °F - 74.1 °F 90% 29.97 in 10.0 mi Calm Calm - N/A   Clear
11:15 PM 77.0 °F - 74.3 °F 91% 29.97 in 10.0 mi East 3.5 mph - N/A   Unknown
11:35 PM 77.2 °F - 74.1 °F 90% 29.97 in 10.0 mi East 3.5 mph - N/A   Unknown
11:55 PM 76.6 °F - 73.8 °F 91% 29.97 in 10.0 mi Calm Calm - N/A   Unknown